Location: Arboyeti
(42.1122°N, 44.6017°E)
Time: 20:51:56
(UTC+00:00)

IGS 5A - Pass Details

Date: 19 April 2021
Orbit: 583 x 588 km, 97.6° (Epoch: 06 May)

Event Time Altitude Azimuth Distance (km) Brightness Sun altitude
Exits shadow 17:57:58 51° 198° (SSW) 741 3.7 -22.0°
Maximum altitude 17:58:51 68° 259° (WSW) 630 3.6 -22.2°
Drops below altitude 10° 18:02:59 10° 343° (NNW) 1,913 6.9 -22.7°
Sets 18:05:10 0° 346° (NNW) 2,818 7.8 -23.0°
